User: anonymous   Login
Location: Unspecified
(0.0000°N, 0.0000°E)
Time: 08:03:15
(UTC+00:00)
Language:

AGILE - Orbit

View from above orbital plane
View from above orbital plane
View from above satellite
View from above satellite

Ground track
Ground track

The orbit data is extracted from the following two-line orbital elements,

1 31135U 07013A   17227.43570935  .00002309  00000-0  39887-4 0  9992
2 31135   2.4684   7.6662 0012959 202.2327 157.7164 15.29832210572806
Epoch (UTC): 15 August 2017 10:27:25
Eccentricity: 0.0012959
inclination: 2.4684°
perigee height: 467 km
apogee height: 485 km
right ascension of ascending node: 7.6662°
argument of perigee: 202.2327°
revolutions per day: 15.29832210
mean anomaly at epoch: 157.7164°
orbit number at epoch: 57280

The dashed part of the orbit path shows where the satellite is in the earth's shadow,  

DLR